{"data":{"norad_id":59804,"intl_designator":"2024-093Y","name":"STARLINK-31824","alt_names":[],"object_type":"PAYLOAD","status":"ACTIVE","operator":null,"country":"US","launch_date":"2024-05-18","launch_site_code":"AFETR","launch_vehicle":null,"mission":null,"orbit_class":"UNKNOWN","rcs_meters":null,"size_class":null,"mass_kg":null,"dimensions":null,"purposes":["comms"],"wikipedia_slug":null,"has_3d_model":false,"image_url":null,"decayed_at":null,"tle_current":{"epoch":"2026-09-21T11:07:19.841376Z","epoch_age_seconds":91227,"freshness":"FRESH","line1":"1 59804U 24093Y   26264.46342409 -.00000108  00000+0  55854-5 0  9997","line2":"2 59804  43.0015 183.5073 0001279 273.5444  86.5261 15.27574120132633","mean_motion":15.2757412,"eccentricity":0.0001279,"inclination_deg":43.0015,"raan_deg":183.5073,"arg_perigee_deg":273.5444,"mean_anomaly_deg":86.5261,"bstar":5.5854e-6,"rev_number":13263,"period_min":94.267111569028,"perigee_km":482.18915497785,"apogee_km":483.94425088506,"semimajor_km":6861.2037029314,"source":"CELESTRAK","updated_at":"2026-09-22T09:00:49.075581Z"}}}